Regional Weather Roundup
Issued by NWS

Home | Current Version | Previous Version | Graphics & Text | Print | Product List | Glossary On
Versions: 1 2 3 4 5 6 7 8 9 10 11 12 13 14 15 16 17 18 19 20 21 22 23 24 25 26 27 28 29 30 31 32 33 34 35 36 37 38 39 40 41 42 43 44 45 46 47 48 49 50
372
ASUS45 KTFX 221410
RWRMT
MONTANA REGIONAL WEATHER ROUNDUP
NATIONAL WEATHER SERVICE GREAT FALLS MT
800 AM MDT WED MAR 22 2017

NOTE: "FAIR" INDICATES FEW OR NO CLOUDS BELOW 12000 FEET WITH NO
SIGNIFICANT WEATHER AND/OR OBSTRUCTIONS TO VISIBILITY.

MTZ001>007-043-221500-
WEST OF THE DIVIDE

CITY           SKY/WX    TMP DP  RH WIND       PRES   REMARKS
KALISPELL      FOG       33  33 100 SW5       29.83R VSB 1
MISSOULA       CLOUDY    37  37 100 CALM      29.89R
BUTTE          CLEAR     31  29  92 S7        29.89S WCI  24
MULLAN PASS    MIX PCPN  32  32 100 S5        29.81S VSB 1/4
ANACONDA         N/A     30  28  93 W5        29.87F
DEER LODGE       N/A     32  32 100 W5        29.91R
EUREKA           N/A     41  36  81 SE10      29.79S
HAMILTON         N/A     39  34  81 SE8       29.88R
PLAINS           N/A     38  30  73 CALM      29.87R
RONAN            N/A     39  37  92 E3        29.90R
$$

MTZ008-052>055-221500-
SOUTHWEST MONTANA

CITY           SKY/WX    TMP DP  RH WIND       PRES   REMARKS
BOZEMAN        CLOUDY    33  33 100 S3        29.88R
DILLON         CLEAR     36  32  85 S10       29.86F WCI  28
W YELLOWSTONE  MIX PCPN  36  36 100 S13       29.95S WCI  27
ENNIS          CLEAR     43  37  81 S10G18    29.92S
THREE FORKS      N/A     31   5  33 CALM      29.88R
TWIN BRIDGES     N/A     35  29  79 SW1       29.88S
$$

MTZ009-010-012-014-046-048-049-054-221500-
EAST SLOPES AND CENTRAL MONTANA

CITY           SKY/WX    TMP DP  RH WIND       PRES   REMARKS
CUT BANK         N/A     41  30  65 SW20G26   29.71F
GREAT FALLS    CLEAR     43  32  65 SW15      29.77R
HELENA         CLEAR     36  34  92 W6        29.85R WCI  31
AUGUSTA          N/A     38  31  74 SW18      29.76R WCI  29
BOWMANS CRNR     N/A     38  31  77 SW21      29.77S WCI  28
CHOTEAU          N/A     43  32  65 SW12G17   29.76S
FAIRFIELD        N/A     41  31  68 SW12      29.75R
POWER            N/A     40  32  71 SW17      29.75R
RAYNESFORD       N/A     47  33  58 SW21G26   29.79R
$$

MTZ011-013-016-021-045-047-050-051-221500-
NORTH CENTRAL MONTANA

CITY           SKY/WX    TMP DP  RH WIND       PRES   REMARKS
HAVRE          PTCLDY    30  29  96 S3        29.75F
LEWISTOWN      CLEAR     42  34  73 W9        29.78R
N BAR RANCH    MOCLDY    39  34  81 NE7       29.79R
CHINOOK          N/A     34  34 100 CALM      29.77S
DENTON         MOCLDY    45  36  72 SW21      29.73R
FORT BENTON      N/A     32  30  93 MISG      29.78R
GEYSER           N/A     46  34  62 W21G29    29.76R
GRASS RANGE      N/A     44  38  79 W22       29.72R
STANFORD         N/A     44  33  65 W7        29.78R
WINIFRED         N/A     36 N/A N/A W10       29.75R WCI  28
$$

MTZ017>020-022>027-061-062-221500-
NORTHEAST MONTANA

CITY           SKY/WX    TMP DP  RH WIND       PRES   REMARKS
GLASGOW        CLOUDY    33  28  81 SE14      29.80F WCI  23
JORDAN           N/A     34  31  88 SE8       29.79F WCI  27
SIDNEY         CLOUDY   N/A N/A N/A S14       29.94S
WOLF POINT     CLOUDY    35  28  75 SE9       29.86F WCI  28
MALTA          CLOUDY    36  32  87 CALM      29.80R
PLENTYWOOD       N/A     30  25  80 SE15      29.92S WCI  19
POPLAR           N/A     34  27  75 SE9       29.90F WCI  26
SCOBEY           N/A     30  19  63 SE16      29.84F WCI  19
$$

MTZ028>42-056>058-221500-
SOUTHCENTRAL AND SOUTHEAST MONTANA

CITY           SKY/WX    TMP DP  RH WIND       PRES   REMARKS
BAKER          CLOUDY    30  27  88 SE22G32   29.88S WCI  17
BILLINGS       FOG       37  36  96 SW17      29.81S VSB 1/8 WCI  27
LIVINGSTON     CLOUDY    34  31  88 NW10      29.84R WCI  26
MILES CITY     CLOUDY    33  28  81 SE14      29.82F WCI  23
BIG TIMBER     CLEAR     39  36  87 W13       29.83R WCI  32
EKALAKA          N/A     29  26  88 SE14      29.82R WCI  18
FORSYTH          N/A     34  34 100 W5        29.84R
HARLOWTON        N/A     40  36  84 W14       29.80R
LAUREL           N/A     37  34  89 CALM      29.83R VSB 0
$$

REGIONAL REPORTS...DAKOTAS

CITY           SKY/WX    TMP DP  RH WIND       PRES   REMARKS
WILLISTON      CLOUDY    31  23  72 S12G23    29.96F WCI  22
MINOT          CLOUDY    25  17  72 SE15G26   30.10F WCI  13
DICKINSON      CLOUDY    28  22  78 SE29G35   29.92F WCI  12
BEACH            N/A    N/A N/A N/A MISG        N/A
TIOGA          CLOUDY    23  23 100 S25G33    29.98F WCI   7
WATFORD CITY   CLOUDY    28  23  80 SE16G26   29.96F WCI  17
BISMARCK       CLOUDY    28  20  71 SE20      30.15F WCI  15
GRAND FORKS    CLOUDY    22   6  50 SE17      30.39F WCI   8
FARGO          CLOUDY    24   9  52 SE15      30.42F WCI  11
BUFFALO SD       N/A     31  28  89 SE20      29.83F WCI  19
RAPID CITY     SUNNY     36  31  82 S24G33    29.92F WCI  24
$$

REGIONAL REPORTS...WYOMING/IDAHO/WASHINGTON

CITY           SKY/WX    TMP DP  RH WIND       PRES   REMARKS
GILLETTE       CLOUDY    37  31  78 S30G39    29.79F WCI  24
SHERIDAN       CLOUDY    36  35  96 S3        29.82R
BUFFALO WY     CLOUDY    39  34  82 NW15      29.79R WCI  31
CODY           CLOUDY    51  34  52 N7        29.85R
YELLOWSTONE LA   N/A     33  32  96 CALM      29.99S
IDAHO FALLS    CLOUDY    41  41 100 S6        29.93S
SALMON         CLEAR     30  27  86 CALM      29.89S
BOISE            N/A     44  38  79 SE9       29.89R
SPOKANE        CLOUDY    41  39  93 CALM      29.83F
$$

REGIONAL REPORTS...ALBERTA

CITY           SKY/WX    TMP DP  RH WIND       PRES   REMARKS
EDMONTON       CLOUDY    28  23  80 E5        29.62S
CALGARY        MOCLDY    34  32  93 N6        29.55F WCI  29
LETHBRIDGE     PTCLDY    41  32  70 SW12      29.64R
MEDICINE HAT   MOCLDY    43  36  75 S14G24    29.64F
WATERTON GATE    N/A     39  34  81 SW28G39     N/A  WCI  28
CARDSTON         N/A     43  30  61 SW12G18     N/A
MILK RIVER       N/A     36  32  87 SW8         N/A  WCI  29
$$

REGIONAL REPORTS...SASKATCHEWAN

CITY           SKY/WX    TMP DP  RH WIND       PRES   REMARKS
SWIFT CURRENT  CLOUDY    32  30  93 S23       29.71F FOG     WCI  19
REGINA         CLOUDY    21  18  86 SE25G35   29.93F WCI   4
SASKATOON      CLOUDY    25  18  74 SE22      29.85F WCI  10
VAL MARIE        N/A     32  30  93 S12         N/A  WCI  23
ROCKGLEN         N/A     28  27  93 S24G30      N/A  WCI  14
ASSINIBOIA       N/A     30  25  80 SE13G20     N/A  WCI  20
$$




USA.gov is the U.S. government's official web portal to all federal, state and local government web resources and services.